Sugar Grove, IL

6:53 AM CST on February 24, 2017 (GMT -0600)
Aurora Municipal

Weather History for KARR - April, 2013

Change the Weather History Date:

Wednesday, April 10, 2013

  Actual Average Record
Temperature  
Mean Temperature 40 °F 47 °F  
Max Temperature 42 °F 58 °F 83 °F (2011)
Min Temperature 37 °F 35 °F 22 °F (2012)
Degree Days  
Heating Degree Days 25 18  
Month to date heating degree days 220 200  
Since 1 July heating degree days 6134 6208  
Cooling Degree Days 0 0  
Month to date cooling degree days 0 0  
Year to date cooling degree days 0 0  
Moisture  
Dew Point 39 °F    
Average Humidity 96    
Maximum Humidity 100    
Minimum Humidity 92    
Precipitation  
Precipitation 0.98 in 0.11 in 0.98 in (2013)
Month to date precipitation 1.69 1.04  
Year to date precipitation 7.91 6.36  
Sea Level Pressure  
Sea Level Pressure 29.90 in    
Wind  
Wind Speed 16 mph (NE)    
Max Wind Speed 36 mph    
Max Gust Speed 41 mph    
Visibility 7 miles    
Events Rain , Snow , Thunderstorm    
T = Trace of Precipitation, MM = Missing Value Source: NWS Daily Summary

Daily Weather History Graph

Daily Weather History Graph

Search for Another Location

Airport or City:

Trip Planner

Search our weather history database for the weather conditions in past years. The results will help you decide how hot, cold, wet, or windy it might be!

Date:

Astronomy

Apr. 10, 2013 Rise Set
Actual Time 6:21 AM CDT 7:29 PM CDT
Civil Twilight 5:52 AM CDT 7:58 PM CDT
Nautical Twilight 5:18 AM CDT 8:32 PM CDT
Astronomical Twilight 4:43 AM CDT 9:08 PM CDT
Moon 6:16 AM CDT (4/10) 8:06 PM CDT (4/10)
Length of Visible Light 14h 05m
Length of Day
13h 08m
New Moon, 0% of the Moon is Illuminated
Apr 10
New Moon
Apr 18
First Quarter
Apr 25
Full
May 2
Last Quarter
May 9
New

Hourly Weather History & Observations

Time (CDT) Temp. Windchill Dew Point Humidity Pressure Visibility Wind Dir Wind Speed Gust Speed Precip Events Conditions
12:52 AM 41.0 °F 32.5 °F - N/A% 29.92 in 9.0 mi ENE 17.3 mph - N/A   Overcast
1:52 AM 42.1 °F 35.2 °F - N/A% 29.89 in 7.0 mi ENE 12.7 mph - 0.00 in Rain Light Rain
2:52 AM 42.1 °F 34.9 °F - N/A% 29.89 in 7.0 mi ENE 13.8 mph - 0.00 in   Overcast
3:52 AM 41.0 °F 33.5 °F - N/A% 29.88 in 8.0 mi ENE 13.8 mph 25.3 mph N/A   Overcast
4:52 AM 39.9 °F 31.1 °F - N/A% 29.86 in 8.0 mi ENE 17.3 mph 23.0 mph N/A   Overcast
5:52 AM 39.0 °F 29.0 °F - N/A% 29.94 in 8.0 mi North 20.7 mph 31.1 mph N/A   Overcast
5:59 AM 39.2 °F 29.6 °F - N/A% 29.92 in 6.0 mi North 19.6 mph 28.8 mph N/A   Haze
6:52 AM 37.9 °F 29.2 °F - N/A% 29.94 in 4.0 mi NNE 15.0 mph 28.8 mph 0.01 in Rain Light Rain
7:10 AM 37.4 °F 25.9 °F - N/A% 30.04 in 4.0 mi NNW 25.3 mph 41.4 mph 0.00 in Thunderstorm Haze
7:17 AM 37.4 °F 27.2 °F - N/A% 29.98 in 1.8 mi North 19.6 mph 41.4 mph 0.12 in Snow , Thunderstorm Light Thunderstorms and Snow
7:28 AM 37.4 °F 26.1 °F - N/A% 29.91 in 2.0 mi NNE 24.2 mph 29.9 mph 0.23 in Rain , Thunderstorm Light Thunderstorms and Rain
7:36 AM 37.4 °F 26.1 °F - N/A% 29.87 in 9.0 mi NE 24.2 mph 33.4 mph 0.23 in Rain , Thunderstorm Light Rain
7:47 AM 37.4 °F 27.5 °F - N/A% 29.88 in 10.0 mi ENE 18.4 mph 32.2 mph 0.23 in Rain , Thunderstorm Light Thunderstorms and Rain
7:52 AM 37.9 °F 28.2 °F - N/A% 29.89 in 10.0 mi ENE 18.4 mph - 0.23 in Rain , Thunderstorm Light Thunderstorms and Rain
8:43 AM 39.2 °F 31.6 °F 37.4 °F 93% 29.87 in 10.0 mi ENE 12.7 mph - 0.01 in   Mostly Cloudy
8:52 AM 39.9 °F 32.1 °F 39.0 °F 97% 29.88 in 10.0 mi ENE 13.8 mph - 0.01 in   Mostly Cloudy
9:47 AM 41.0 °F 36.4 °F 39.2 °F 93% 29.92 in 10.0 mi SE 6.9 mph - 0.01 in Thunderstorm Thunderstorm
9:52 AM 41.0 °F 37.1 °F 39.0 °F 93% 29.93 in 10.0 mi East 5.8 mph - 0.01 in Thunderstorm Thunderstorm
10:52 AM 41.0 °F 33.1 °F 39.0 °F 93% 29.90 in 9.0 mi North 15.0 mph 21.9 mph 0.02 in Rain Light Rain
11:52 AM 41.0 °F 33.5 °F 39.0 °F 93% 29.92 in 10.0 mi ENE 13.8 mph - 0.00 in   Overcast
12:52 PM 39.9 °F 32.1 °F 39.0 °F 97% 29.92 in 7.0 mi ENE 13.8 mph - 0.00 in   Overcast
1:52 PM 41.0 °F 33.9 °F 39.0 °F 93% 29.96 in 6.0 mi NNE 12.7 mph - 0.00 in Rain Light Rain
2:52 PM 41.0 °F 32.8 °F 39.0 °F 93% 29.92 in 10.0 mi NE 16.1 mph 33.4 mph 0.00 in Rain Light Rain
3:52 PM 42.1 °F 34.5 °F 39.0 °F 89% 29.95 in 10.0 mi ENE 15.0 mph - 0.00 in   Overcast
4:52 PM 41.0 °F 31.9 °F 39.0 °F 93% 29.91 in 8.0 mi ENE 19.6 mph 26.5 mph 0.01 in Rain Light Rain
5:52 PM 41.0 °F 31.1 °F 39.0 °F 93% 29.88 in 9.0 mi NE 23.0 mph 33.4 mph 0.00 in   Overcast
6:52 PM 39.9 °F 31.4 °F 37.9 °F 93% 29.85 in 7.0 mi ENE 16.1 mph 27.6 mph N/A   Overcast
7:52 PM 39.9 °F 31.1 °F 39.0 °F 97% 29.86 in 7.0 mi ENE 17.3 mph - N/A   Overcast
8:52 PM 41.0 °F 32.5 °F 39.0 °F 93% 29.83 in 6.0 mi ENE 17.3 mph 26.5 mph N/A   Overcast
9:14 PM 41.0 °F 33.1 °F 39.2 °F 93% 29.85 in 4.0 mi ENE 15.0 mph - 0.03 in Rain , Thunderstorm Thunderstorms and Rain
9:29 PM 41.0 °F 32.8 °F 39.2 °F 93% 29.86 in 3.0 mi NE 16.1 mph - 0.08 in Rain Rain
9:52 PM 39.9 °F 31.4 °F 39.0 °F 97% 29.84 in 4.0 mi NE 16.1 mph 25.3 mph 0.16 in Rain Rain
10:52 PM 39.9 °F 30.0 °F 37.9 °F 93% 29.87 in 4.0 mi NE 21.9 mph 29.9 mph 0.15 in Rain Rain
11:28 PM 39.2 °F 29.6 °F 37.4 °F 93% 29.84 in 4.0 mi NE 19.6 mph - 0.17 in Rain Rain
11:41 PM 39.2 °F 29.8 °F 37.4 °F 93% 29.85 in 4.0 mi NE 18.4 mph 26.5 mph 0.24 in Rain Rain
11:52 PM 39.9 °F 31.1 °F 37.9 °F 93% 29.86 in 4.0 mi NE 17.3 mph - 0.29 in Rain Rain